Regional Weather Roundup
Issued by NWS

Home | Current Version | Previous Version | Graphics & Text | Print | Product List | Glossary On
Versions: 1 2 3 4 5 6 7 8 9 10 11 12 13 14 15 16 17 18 19 20 21 22 23 24 25 26 27 28 29 30 31 32 33 34 35 36 37 38 39 40 41 42 43 44 45 46 47 48 49 50
000
ASUS43 KLMK 281202
RWRKY
KENTUCKY REGIONAL WEATHER ROUNDUP
NATIONAL WEATHER SERVICE LOUISVILLE KY
800 AM EDT FRI AUG 28 2015

NOTE "FAIR" INDICATES FEW OR NO CLOUDS BELOW 12,000 FEET
WITH NO SIGNIFICANT WEATHER AND/OR OBSTRUCTIONS TO VISIBILITY.

KYZ001>023-026-027-061>063-070>075-281300-
WESTERN AND SOUTH CENTRAL KENTUCKY

CITY           SKY/WX    TMP DP  RH WIND       PRES   REMARKS
PADUCAH        FOG       55  54  96 CALM      30.11S VSB<1/4
HENDERSON      CLEAR     55  52  88 CALM      30.14R
OWENSBORO      CLEAR     60  56  87 CALM      30.15R
HOPKINSVILLE   CLEAR     56  54  91 NE2       30.12R
BOWLING GREEN  MOCLDY    59  56  89 CALM      30.15R
GLASGOW        NOT AVBL
$$

KYZ024-025-028>034-038-045-046-053-281300-
NORTH CENTRAL KENTUCKY

CITY           SKY/WX    TMP DP  RH WIND       PRES   REMARKS
LOUISVILLE/SDF CLEAR     62  57  83 NE3       30.16S
LOUISVILLE/LOU CLEAR     59  56  89 CALM      30.18R
FORT KNOX      CLEAR     58  55  89 NE2       30.15R
$$

KYZ035>037-039>044-047>052-055>060-089>105-281300-
NORTHEAST KENTUCKY

CITY           SKY/WX    TMP DP  RH WIND       PRES   REMARKS
LEXINGTON      CLEAR     57  54  89 NE6       30.18S
COVINGTON      PTCLDY    58  56  93 N5        30.19R
FRANKFORT      CLEAR     55  52  89 CALM      30.17S
$$

KYZ054-064>069-076>088-106>120-281300-
SOUTHEAST KENTUCKY

CITY           SKY/WX    TMP DP  RH WIND       PRES   REMARKS
JACKSON        MOSUNNY   59  55  87 CALM      30.19R
LONDON         PTSUNNY   59  54  83 CALM      30.18R
SOMERSET       NOT AVBL
MIDDLESBORO    SUNNY     58  57  97 CALM      30.19R
MONTICELLO     SUNNY     56  56 100 CALM      30.19R
$$



USA.gov is the U.S. government's official web portal to all federal, state and local government web resources and services.